Weather History for KMTV - September, 2013

Change the Weather History Date:

Tuesday, September 10, 2013

  Actual Average (KGSO) Record (KGSO)
Temperature  
Mean Temperature 76 °F 72 °F  
Max Temperature 90 °F 82 °F 97 °F (1925)
Min Temperature 62 °F 63 °F 44 °F (1956)
Degree Days  
Heating Degree Days 0 0  
Month to date heating degree days 0  
Since 1 July heating degree days 1  
Cooling Degree Days 11 8  
Month to date cooling degree days 88  
Year to date cooling degree days 1350  
Growing Degree Days 26 (Base 50)    
Moisture  
Dew Point 67 °F    
Average Humidity 81    
Maximum Humidity 98    
Minimum Humidity 47    
Precipitation  
Precipitation 0.00 in 0.16 in 0.82 in (1940)
Month to date precipitation 1.53  
Year to date precipitation 30.32  
Sea Level Pressure  
Sea Level Pressure 30.24 in    
Wind  
Wind Speed 1 mph (SSW)    
Max Wind Speed 6 mph    
Max Gust Speed -    
Visibility 6 miles    
Events Fog    
T = Trace of Precipitation, MM = Missing Value Source: NWS Daily Summary

Daily Weather History Graph

Daily Weather History Graph

Search for Another Location

Airport or City:

Trip Planner

Search our weather history database for the weather conditions in past years. The results will help you decide how hot, cold, wet, or windy it might be!

Date:

Astronomy

Sep. 10, 2013 Rise Set
Actual Time 6:58 AM EDT 7:34 PM EDT
Civil Twilight 6:32 AM EDT 8:00 PM EDT
Nautical Twilight 6:01 AM EDT 8:31 PM EDT
Astronomical Twilight 5:30 AM EDT 9:02 PM EDT
Moon 12:12 PM EDT (9/10) 10:46 PM EDT (9/10)
Length of Visible Light 13h 28m
Length of Day
12h 36m
Waxing Crescent, 28% of the Moon is Illuminated
Sep 10
Waxing Crescent
Sep 12
First Quarter
Sep 19
Full
Sep 26
Last Quarter
Oct 4
New

Hourly Weather History & Observations

Time (EDT) Temp. Heat Index Dew Point Humidity Pressure Visibility Wind Dir Wind Speed Gust Speed Precip Events Conditions
12:15 AM 67.1 °F - 66.0 °F 96% 30.22 in 3.0 mi Calm Calm - N/A   Clear
12:35 AM 66.7 °F - 65.7 °F 96% 30.22 in 2.5 mi Calm Calm - N/A   Clear
12:55 AM 66.2 °F - 65.3 °F 97% 30.22 in 1.5 mi Calm Calm - N/A   Mist
1:15 AM 66.2 °F - 65.1 °F 96% 30.22 in 1.2 mi Calm Calm - N/A   Mist
1:35 AM 65.8 °F - 64.9 °F 97% 30.21 in 1.5 mi Calm Calm - N/A   Scattered Clouds
1:55 AM 65.7 °F - 64.8 °F 97% 30.22 in 0.8 mi Calm Calm - N/A   Mostly Cloudy
2:15 AM 65.5 °F - 64.6 °F 97% 30.21 in 1.2 mi Calm Calm - N/A   Mostly Cloudy
2:35 AM 65.3 °F - 64.4 °F 97% 30.22 in 0.8 mi Calm Calm - N/A   Overcast
2:55 AM 64.8 °F - 63.9 °F 97% 30.22 in 1.0 mi Calm Calm - N/A   Overcast
3:15 AM 65.1 °F - 64.4 °F 98% 30.22 in 2.0 mi Calm Calm - N/A   Scattered Clouds
3:35 AM 64.4 °F - 63.5 °F 97% 30.22 in 2.0 mi Calm Calm - N/A   Clear
3:55 AM 63.9 °F - 63.0 °F 97% 30.22 in 0.8 mi Calm Calm - N/A   Mostly Cloudy
4:15 AM 63.5 °F - 62.8 °F 97% 30.22 in 1.0 mi Calm Calm - N/A   Mostly Cloudy
4:35 AM 64.0 °F - 63.3 °F 97% 30.23 in 3.0 mi Calm Calm - N/A   Clear
4:55 AM 63.3 °F - 62.6 °F 97% 30.23 in 2.5 mi Calm Calm - N/A   Clear
5:15 AM 63.0 °F - 62.2 °F 97% 30.23 in 1.8 mi Calm Calm - N/A   Mostly Cloudy
5:35 AM 62.6 °F - 61.9 °F 97% 30.24 in 2.0 mi Calm Calm - N/A   Overcast
5:55 AM 62.8 °F - 62.1 °F 97% 30.24 in 0.8 mi Calm Calm - N/A   Overcast
6:15 AM 62.6 °F - 61.9 °F 97% 30.24 in 0.5 mi Calm Calm - N/A Fog Fog
6:35 AM 62.6 °F - 61.9 °F 97% 30.24 in 0.2 mi Calm Calm - N/A Fog Fog
6:55 AM 62.6 °F - 61.9 °F 97% 30.25 in 0.8 mi Calm Calm - N/A   Overcast
7:15 AM 62.6 °F - 61.9 °F 97% 30.26 in 1.0 mi Calm Calm - N/A   Overcast
7:35 AM 62.8 °F - 62.1 °F 97% 30.26 in 0.2 mi Calm Calm - N/A Fog Fog
7:55 AM 63.3 °F - 62.6 °F 97% 30.26 in 0.2 mi Calm Calm - N/A Fog Fog
8:15 AM 64.4 °F - 63.7 °F 98% 30.27 in 0.2 mi Calm Calm - N/A Fog Fog
8:35 AM 64.6 °F - 64.0 °F 98% 30.27 in 0.2 mi Calm Calm - N/A Fog Fog
8:55 AM 66.2 °F - 65.3 °F 97% 30.27 in 2.5 mi Calm Calm - N/A   Overcast
9:15 AM 68.5 °F - 66.7 °F 94% 30.27 in 3.0 mi Calm Calm - N/A   Scattered Clouds
9:35 AM 71.4 °F - 68.0 °F 89% 30.28 in 5.0 mi Calm Calm - N/A   Scattered Clouds
9:55 AM 73.6 °F - 68.5 °F 84% 30.28 in 7.0 mi Calm Calm - N/A   Scattered Clouds
10:15 AM 77.4 °F - 69.8 °F 77% 30.28 in 10.0 mi Calm Calm - N/A   Clear
10:35 AM 79.2 °F - 70.3 °F 74% 30.28 in 10.0 mi Calm Calm - N/A   Clear
10:55 AM 80.8 °F 84.2 °F 70.2 °F 70% 30.28 in 10.0 mi Calm Calm - N/A   Clear
11:15 AM 82.6 °F 86.6 °F 70.2 °F 66% 30.28 in 10.0 mi SSW 4.6 mph - N/A   Clear
11:35 AM 84.2 °F 88.4 °F 69.8 °F 62% 30.28 in 10.0 mi South 3.5 mph - N/A   Clear
11:55 AM 84.6 °F 88.5 °F 69.3 °F 60% 30.27 in 10.0 mi SSW 4.6 mph - N/A   Clear
12:15 PM 85.3 °F 89.1 °F 69.1 °F 58% 30.27 in 10.0 mi SSW 3.5 mph - N/A   Clear
12:35 PM 86.4 °F 90.7 °F 69.4 °F 57% 30.26 in 10.0 mi SSW 3.5 mph - N/A   Clear
12:55 PM 86.9 °F 91.0 °F 69.1 °F 55% 30.26 in 10.0 mi SSW 4.6 mph - N/A   Clear
1:15 PM 86.9 °F 90.6 °F 68.2 °F 54% 30.26 in 10.0 mi SSW 3.5 mph - N/A   Clear
1:35 PM 87.3 °F 90.2 °F 67.3 °F 51% 30.26 in 10.0 mi South 5.8 mph - N/A   Clear
1:55 PM 88.7 °F 92.2 °F 67.8 °F 50% 30.25 in 10.0 mi SW 5.8 mph - N/A   Clear
2:15 PM 88.7 °F 91.9 °F 67.3 °F 49% 30.25 in 10.0 mi WSW 4.6 mph - N/A   Clear
2:35 PM 90.0 °F 94.1 °F 68.4 °F 49% 30.24 in 10.0 mi SSE 3.5 mph - N/A   Clear
2:55 PM 90.0 °F 94.1 °F 68.7 °F 49% 30.23 in 10.0 mi South 3.5 mph - N/A   Scattered Clouds
3:15 PM 90.1 °F 94.4 °F 68.7 °F 49% 30.23 in 10.0 mi SSW 4.6 mph - N/A   Scattered Clouds
3:35 PM 89.6 °F 93.4 °F 68.0 °F 49% 30.22 in 10.0 mi SSW 3.5 mph - N/A   Scattered Clouds
3:55 PM 90.7 °F 95.0 °F 68.4 °F 48% 30.22 in 10.0 mi SSW 3.5 mph - N/A   Clear
4:15 PM 89.6 °F 92.6 °F 66.7 °F 47% 30.22 in 10.0 mi South 3.5 mph - N/A   Clear
4:35 PM 90.0 °F 94.1 °F 68.4 °F 49% 30.21 in 10.0 mi SW 3.5 mph - N/A   Clear
4:55 PM 88.9 °F 93.0 °F 68.4 °F 51% 30.20 in 10.0 mi South 4.6 mph - N/A   Clear
5:15 PM 88.9 °F 93.0 °F 68.5 °F 51% 30.20 in 10.0 mi SSW 3.5 mph - N/A   Clear
5:35 PM 88.0 °F 91.8 °F 68.4 °F 52% 30.20 in 10.0 mi SSW 4.6 mph - N/A   Clear
5:55 PM 87.1 °F 92.0 °F 70.0 °F 57% 30.20 in 10.0 mi South 3.5 mph - N/A   Clear
6:15 PM 86.4 °F 91.1 °F 70.2 °F 58% 30.20 in 10.0 mi Calm Calm - N/A   Clear
6:35 PM 84.9 °F 89.4 °F 70.3 °F 61% 30.20 in 10.0 mi Calm Calm - N/A   Clear
6:55 PM 82.6 °F 87.3 °F 71.4 °F 69% 30.20 in 10.0 mi Calm Calm - N/A   Clear
7:15 PM 78.6 °F - 72.7 °F 82% 30.20 in 10.0 mi Calm Calm - N/A   Clear
7:35 PM 76.8 °F - 72.5 °F 86% 30.20 in 10.0 mi Calm Calm - N/A   Clear
7:55 PM 75.6 °F - 72.0 °F 89% 30.21 in 10.0 mi Calm Calm - N/A   Clear
8:15 PM 74.8 °F - 71.6 °F 90% 30.21 in 10.0 mi Calm Calm - N/A   Clear
8:35 PM 73.0 °F - 70.9 °F 93% 30.22 in 7.0 mi Calm Calm - N/A   Clear
8:55 PM 73.0 °F - 70.9 °F 93% 30.23 in 7.0 mi Calm Calm - N/A   Clear
9:15 PM 72.0 °F - 69.8 °F 93% 30.24 in 5.0 mi Calm Calm - N/A   Scattered Clouds
9:35 PM 71.6 °F - 69.8 °F 94% 30.25 in 5.0 mi Calm Calm - N/A   Scattered Clouds
9:55 PM 71.6 °F - 70.0 °F 95% 30.25 in 4.0 mi Calm Calm - N/A   Mostly Cloudy
10:15 PM 71.1 °F - 69.8 °F 96% 30.26 in 4.0 mi Calm Calm - N/A   Mostly Cloudy
10:35 PM 70.7 °F - 69.3 °F 95% 30.26 in 4.0 mi Calm Calm - N/A   Overcast
10:55 PM 70.7 °F - 69.3 °F 95% 30.26 in 3.0 mi Calm Calm - N/A   Mostly Cloudy
11:15 PM 70.9 °F - 69.6 °F 96% 30.26 in 4.0 mi Calm Calm - N/A   Scattered Clouds
11:35 PM 70.3 °F - 69.1 °F 96% 30.26 in 2.5 mi Calm Calm - N/A   Scattered Clouds
11:55 PM 69.8 °F - 68.5 °F 96% 30.25 in 3.0 mi Calm Calm - N/A   Clear